sat.trackr.live / text

‹ back to catalog

HORACIO

NORAD 59098 · 2024-043A

PAYLOAD ACTIVE UNKNOWN

§ Identity

Operator
Country
SPN
Launch date
2024-03-04
Launch site
AFWTR
Launch vehicle
Mass (kg)
RCS (m²)

External: N2YO · Heavens-Above · Gunter

§ Orbital elements

Epoch: 2026-09-22T21:34:24.881376Z

Period
96.07 min
Inclination
97.8635°
Eccentricity
0.0010687
Mean motion
14.98854314 rev/d
Perigee alt
563.0 km
Apogee alt
577.9 km
Semi-major
6,948.6 km
B*
1.1377e-4
RAAN
38.4027°
Arg perigee
57.0535°
Mean anomaly
303.1714°
Rev number
13,930

§ Raw data

HORACIO1 59098U 24043A   26265.89889909  .00001313  00000+0  11377-3 0  99942 59098  97.8635  38.4027 0010687  57.0535 303.1714 14.98854314139304

JSON: /api/v1/satellites/59098 · /tle

For live sub-satellite position, see the globe view (requires WebGL).

§ Visibility from observer

Set your observer location to see the next 7 days of passes ≥ 10°. The values pass through the URL so the page stays shareable.

No JS? Fill the form by hand. The geolocation button needs JavaScript.

§ Radio — SatNOGS DB

ModeDescriptionDownlinkUplink
FM Telemetry 401.202 MHz

1 transmitter · refreshed weekly from db.satnogs.org